[[{"header":{"parameterUnit":"m.s-1","parameterCategory":2,"la1":30.2991,"la2":30.254,"lo1":-89.0895,"lo2":-89.0444,"dy":0.0017,"dx":0.0017,"nx":28,"ny":28,"refTime":"2023-11-16T03:00:00:Z","depth":"0","parameterNumber":2,"parameterNumberName":"U-component_of_CURRENTS"},"data":[0,0,0,0,0,0,0,0,0,0,0,0,0,0,0,0,0,0,0,0,0,0,0,0,0,0,0,0,0,0,0,0,0,0,0,0,0,0,0,0,0,0,0,0,0,0,0,0,0,0,0,0,0,0,0,0,0,0,0.3298,0.3298,0,0.33,0.33,0.33,0.3273,0.3273,0.3272,0.3272,0.3237,0.3237,0.3236,0,0,0,0,0,0,0,0,0,0,0,0,0,0.3271,0.3271,0.3298,0.3298,0.3299,0.33,0.33,0.33,0.3273,0.3273,0.3272,0.3272,0.3237,0.3237,0.3236,0,0,0,0,0,0,0,0,0,0,0,0,0,0.3277,0.3271,0.3298,0.3287,0.3287,0.33,0.33,0.3299,0.3274,0.3273,0.3272,0.3271,0.3237,0.3237,0.3236,0.3248,0,0,0.3234,0.3234,0,0,0,0,0,0,0,0,0.3276,0.3277,0.3289,0.3288,0.3287,0.3287,0.3277,0.3281,0.3274,0.3276,0.3272,0.3271,0.3253,0.3251,0.325,0.3246,0.3244,0.3234,0.3234,0.3233,0.3233,0,0,0,0,0,0,0,0.3276,0.3277,0.3297,0.3289,0.3288,0.3282,0.3282,0.3278,0.3266,0.3276,0.3275,0.3278,0.3251,0.3251,0.3249,0.3244,0.3234,0.3233,0.3233,0.3233,0.3285,0.3287,0,0,0,0,0,0,0.3281,0.3277,0.3297,0.3297,0.3282,0.3283,0.3283,0.3286,0.3267,0.3264,0.3279,0.3277,0.3252,0.325,0.3248,0.3287,0.3233,0.3233,0.3232,0.3283,0.3286,0.3287,0,0,0,0,0,0,0.328,0.3283,0.3297,0.3289,0.329,0.3285,0.3289,0.3287,0.3292,0.327,0.3266,0.3287,0.3252,0.3249,0.3259,0.3284,0.3232,0.3232,0.3281,0.3284,0.3286,0.3349,0,0,0,0,0,0,0.328,0.3283,0.3286,0.3289,0.3291,0.3315,0.329,0.3288,0.3296,0.3294,0.3276,0.3271,0.3251,0.326,0.3258,0.3283,0.3231,0.3279,0.3282,0.3286,0.3344,0.3353,0.3361,0,0,0,0,0,0.3279,0.3287,0.3286,0.3288,0.3296,0.3316,0.3317,0.3309,0.3297,0.3308,0.3298,0.3272,0.328,0.3261,0.3258,0.3283,0.3277,0.3281,0.3285,0.3341,0.3351,0.336,0,0,0,0,0,0,0.3272,0.3285,0.3284,0.3294,0.331,0.3313,0.3321,0.3318,0.3319,0.3316,0.329,0.3286,0.331,0.3291,0.3271,0.3311,0.3276,0.328,0.332,0.3329,0.3337,0.3345,0.3231,0,0,0,0,0,0.3275,0.3286,0.33,0.331,0.332,0.3324,0.333,0.333,0.3332,0.3332,0.332,0.3315,0.3325,0.3322,0.3325,0.334,0.3348,0.3358,0.3366,0.3373,0.338,0.3431,0.3444,0.3301,0.3301,0.3301,0,0,0.3274,0.3284,0.3289,0.331,0.3319,0.3337,0.3325,0.3345,0.3359,0.3329,0.3341,0.3345,0.3339,0.3361,0.337,0.3346,0.3419,0.3378,0.3384,0.3387,0.3436,0.345,0.3463,0.3303,0.3303,0.3302,0,0,0.3282,0.3291,0.3305,0.3324,0.3348,0.3353,0.3363,0.3377,0.3384,0.3403,0.3393,0.3414,0.3413,0.342,0.3422,0.3479,0.3467,0.3481,0.3518,0.3568,0.358,0.3591,0.362,0.3633,0.3477,0.3477,0.3478,0,0.328,0.3299,0.3314,0.3335,0.3354,0.3363,0.3387,0.3398,0.3412,0.3436,0.3415,0.3458,0.3443,0.3489,0.3504,0.3497,0.3518,0.3478,0.3579,0.359,0.36,0.3627,0.364,0.3481,0.3481,0.348,0.348,0,0.3299,0.3318,0.3332,0.336,0.3384,0.3408,0.3433,0.3461,0.347,0.3484,0.3538,0.3533,0.356,0.3562,0.3543,0.3613,0.3604,0.359,0.3552,0.3618,0.3642,0.3655,0.3486,0.3485,0.3484,0.3483,0,0,0.3275,0.3333,0.3335,0.3355,0.3402,0.3418,0.347,0.3519,0.355,0.3576,0.3625,0.3649,0.3658,0.3663,0.3655,0.3685,0.3762,0.3665,0.3666,0.369,0.387,0.387,0.3884,0.3772,0.3775,0.3777,0.3858,0,0.3284,0.3322,0.3357,0.3394,0.3417,0.3466,0.3505,0.3555,0.3593,0.3639,0.3676,0.3707,0.3693,0.3705,0.3745,0.3762,0.38,0.3741,0.3805,0.3807,0.3797,0.39,0.3803,0.387,0.3871,0.3873,0.3874,0,0.3282,0.3311,0.3352,0.3414,0.343,0.3457,0.3536,0.3575,0.366,0.3693,0.3761,0.3781,0.3848,0.3808,0.3904,0.3871,0.388,0.3885,0.3888,0.3876,0.3832,0.3805,0.3893,0.3842,0.3894,0.3892,0.3891,0,0.324,0.3303,0.3334,0.3354,0.3426,0.3467,0.351,0.3595,0.364,0.3731,0.3779,0.3859,0.3906,0.395,0.3987,0.395,0.4082,0.4028,0.4039,0.4038,0.3961,0.395,0.4004,0.4095,0.4095,0.4095,0.4094,0,0.3224,0.3245,0.3314,0.3326,0.3368,0.3437,0.3492,0.3555,0.365,0.3711,0.3799,0.3878,0.3946,0.4032,0.4036,0.4106,0.4136,0.4076,0.4077,0.398,0.397,0.3925,0.3881,0.4098,0.4097,0.4096,0.4096,0,0.3167,0.3213,0.3246,0.3322,0.3345,0.3373,0.347,0.3509,0.3618,0.3709,0.3745,0.3914,0.404,0.4105,0.4185,0.4178,0.4125,0.4227,0.4106,0.4093,0.4028,0.399,0.3869,0.3732,0.4246,0.4246,0.4247,0,0.314,0.3154,0.3219,0.3234,0.3268,0.3323,0.3359,0.347,0.3525,0.3734,0.3777,0.3956,0.4063,0.4221,0.4254,0.4296,0.4158,0.421,0.4117,0.4047,0.4006,0.3818,0.3696,0.4034,0.4033,0.4032,0.4031,0,0.3091,0.3115,0.314,0.3169,0.3202,0.3237,0.3309,0.3344,0.349,0.3599,0.3763,0.3877,0.4083,0.4135,0.4233,0.4235,0.4038,0.4192,0.4154,0.3891,0.3653,0.3514,0.3945,0.4022,0.4023,0.4024,0.4024,0.4025,0.3048,0.3047,0.3077,0.3096,0.3122,0.3135,0.3132,0.3229,0.3314,0.3445,0.365,0.3791,0.3996,0.4143,0.4123,0.4092,0.3988,0.3989,0.3963,0.3789,0.3614,0.4032,0.4091,0.4093,0.4094,0.4095,0.4095,0,0.298,0.2987,0.3003,0.3004,0.2982,0.3035,0.3075,0.3062,0.3114,0.3318,0.3448,0.3695,0.3807,0.3935,0.4042,0.3917,0.3663,0.3803,0.3521,0.3417,0.3849,0.3802,0.3759,0.3759,0.3759,0.3759,0.3759,0.3759,0.2946,0.2923,0.2924,0.2856,0.2853,0.2788,0.2781,0.28,0.2909,0.3058,0.3214,0.3401,0.3756,0.3981,0.3962,0.3833,0.3505,0.3351,0.328,0.3638,0.3651,0.3665,0.3612,0.353,0.353,0.2703,0.2698,0.2693]},{"header":{"parameterUnit":"m.s-1","parameterCategory":2,"la1":30.2991,"la2":30.254,"lo1":-89.0895,"lo2":-89.0444,"dy":0.0017,"dx":0.0017,"nx":28,"ny":28,"refTime":"2023-11-16T03:00:00:Z","depth":"0","parameterNumber":3,"parameterNumberName":"V-component_of_CURRENTS"},"data":[0,0,0,0,0,0,0,0,0,0,0,0,0,0,0,0,0,0,0,0,0,0,0,0,0,0,0,0,0,0,0,0,0,0,0,0,0,0,0,0,0,0,0,0,0,0,0,0,0,0,0,0,0,0,0,0,0,0,0.0008,0.0008,0,-0.006,-0.0061,-0.0062,-0.0107,-0.0107,-0.0107,-0.0107,-0.0195,-0.0197,-0.0199,0,0,0,0,0,0,0,0,0,0,0,0,0,0.0042,0.0042,0.0008,0.0008,0.0007,-0.006,-0.0061,-0.0062,-0.0107,-0.0107,-0.0107,-0.0107,-0.0194,-0.0196,-0.0199,0,0,0,0,0,0,0,0,0,0,0,0,0,0.0005,0.0042,0.0009,-0.0023,-0.0026,-0.0059,-0.0061,-0.0062,-0.0107,-0.0107,-0.0107,-0.0108,-0.0193,-0.0196,-0.0199,-0.0213,0,0,-0.0209,-0.0211,0,0,0,0,0,0,0,0,0.0007,0.0004,-0.0017,-0.0021,-0.0024,-0.0074,-0.0081,-0.0113,-0.0107,-0.0077,-0.0107,-0.0108,-0.0155,-0.0161,-0.0175,-0.0217,-0.0221,-0.0209,-0.0211,-0.0213,-0.0214,0,0,0,0,0,0,0,0.001,0.0006,-0.002,-0.0018,-0.0022,-0.0053,-0.0058,-0.0088,-0.0115,-0.008,-0.0083,-0.0089,-0.0157,-0.0172,-0.0177,-0.0222,-0.0209,-0.0212,-0.0214,-0.0215,-0.028,-0.028,0,0,0,0,0,0,0.0024,0.0009,-0.0018,-0.0022,-0.0008,-0.0053,-0.0059,-0.0059,-0.0114,-0.0123,-0.0088,-0.009,-0.0166,-0.0174,-0.0181,-0.0185,-0.0213,-0.0216,-0.0218,-0.028,-0.028,-0.028,0,0,0,0,0,0,0.0025,0.0023,-0.0015,-0.0008,-0.0014,-0.0053,-0.0053,-0.006,-0.007,-0.012,-0.0129,-0.009,-0.0167,-0.0176,-0.0199,-0.0189,-0.0217,-0.022,-0.0281,-0.028,-0.028,-0.0204,0,0,0,0,0,0,0.0027,0.0024,0.0028,-0.0006,-0.0014,-0.0024,-0.0052,-0.0061,-0.0072,-0.0076,-0.0124,-0.0133,-0.0168,-0.0194,-0.0202,-0.0194,-0.0223,-0.0281,-0.028,-0.028,-0.0207,-0.0201,-0.0196,0,0,0,0,0,0.0028,0.0042,0.0029,0.0026,-0.0006,-0.0023,-0.003,-0.006,-0.0072,-0.0071,-0.0104,-0.0131,-0.0198,-0.0196,-0.0206,-0.0199,-0.0281,-0.0281,-0.028,-0.0209,-0.0202,-0.0196,0,0,0,0,0,0,0.0058,0.0037,0.0023,0.0029,0.0008,-0.003,-0.0032,-0.0052,-0.0078,-0.008,-0.0128,-0.0139,-0.0157,-0.0188,-0.0185,-0.0218,-0.0245,-0.0246,-0.0187,-0.0181,-0.0176,-0.0151,-0.0225,0,0,0,0,0,0.0067,0.0072,0.0044,0.0048,0.0042,0.0006,-0.0004,-0.0023,-0.005,-0.0062,-0.0097,-0.0134,-0.0164,-0.0179,-0.0212,-0.0226,-0.0261,-0.023,-0.0224,-0.022,-0.0206,-0.025,-0.0247,-0.0278,-0.0278,-0.0278,0,0,0.0078,0.0068,0.007,0.0054,0.0035,0.0039,-0.0,-0.0008,-0.0005,-0.0067,-0.0073,-0.0116,-0.0164,-0.0181,-0.0192,-0.0205,-0.0231,-0.0219,-0.0214,-0.0204,-0.0249,-0.0246,-0.0244,-0.0278,-0.0278,-0.0278,0,0,0.0109,0.0097,0.0112,0.0103,0.0085,0.0066,0.0069,0.0037,0.0024,0.0008,-0.0034,-0.0066,-0.0114,-0.0144,-0.0166,-0.0151,-0.0202,-0.0166,-0.0118,-0.016,-0.0158,-0.0156,-0.0199,-0.0202,-0.0162,-0.0162,-0.0162,0,0.0123,0.0139,0.0113,0.0127,0.0129,0.0086,0.0105,0.0087,0.0051,0.0046,0.0017,-0.005,-0.0094,-0.011,-0.011,-0.0137,-0.0172,-0.0135,-0.0152,-0.0151,-0.015,-0.0195,-0.0199,-0.0159,-0.0159,-0.0159,-0.016,0,0.0167,0.0178,0.0188,0.0195,0.0192,0.0201,0.0178,0.0176,0.015,0.0121,0.0096,0.003,-0.0007,-0.0032,-0.0069,-0.0083,-0.0112,-0.014,-0.0163,-0.0142,-0.0192,-0.0197,-0.0153,-0.0155,-0.0156,-0.0157,0,0,0.0208,0.0217,0.0222,0.0242,0.0232,0.0242,0.0252,0.0248,0.0265,0.0208,0.0214,0.0144,0.0101,0.0074,0.002,-0.0022,-0.0058,-0.0074,-0.0078,-0.0107,-0.0154,-0.0164,-0.0172,-0.009,-0.009,-0.0091,-0.0191,0,0.0251,0.0297,0.0287,0.0335,0.036,0.0337,0.0359,0.035,0.032,0.0313,0.024,0.0216,0.0144,0.0126,0.0074,-0.0017,-0.0068,-0.0028,-0.0178,-0.0182,-0.0186,-0.0177,-0.0141,-0.0227,-0.0197,-0.0198,-0.0199,0,0.0305,0.0329,0.0384,0.0422,0.0433,0.0457,0.049,0.0497,0.047,0.0442,0.0395,0.0333,0.0273,0.0202,0.006,0.0089,-0.0024,-0.0107,-0.0114,-0.0149,-0.0201,-0.0244,-0.0238,-0.0434,-0.0208,-0.0207,-0.0206,0,0.0367,0.0404,0.0455,0.0467,0.0498,0.053,0.0546,0.0541,0.0565,0.0521,0.0523,0.0429,0.0399,0.0251,0.0089,0.0068,-0.0073,-0.0126,-0.0246,-0.0248,-0.0259,-0.0261,-0.045,-0.0238,-0.0238,-0.0238,-0.0238,0,0.0427,0.0469,0.0493,0.0527,0.0605,0.0599,0.0669,0.0666,0.0671,0.0717,0.0596,0.0611,0.041,0.0309,0.0129,-0.0055,-0.0044,-0.023,-0.0271,-0.0233,-0.0231,-0.0435,-0.0565,-0.0242,-0.0241,-0.024,-0.0239,0,0.0487,0.0499,0.0567,0.0614,0.064,0.0696,0.0763,0.0809,0.0793,0.0848,0.0843,0.0755,0.0624,0.0414,0.0188,0.0018,-0.0298,-0.0251,-0.019,-0.0221,-0.0523,-0.0649,-0.0901,-0.1008,-0.0409,-0.0409,-0.041,0,0.0521,0.0564,0.064,0.0691,0.0717,0.0793,0.0856,0.0872,0.0927,0.0952,0.0995,0.0892,0.0852,0.0513,0.02,-0.011,-0.0325,-0.0302,-0.0343,-0.0529,-0.07,-0.0799,-0.0878,-0.0337,-0.0337,-0.0337,-0.0337,0,0.059,0.0618,0.0672,0.0775,0.0853,0.0939,0.1028,0.1097,0.1136,0.1188,0.1251,0.1224,0.0921,0.0647,0.022,-0.0013,-0.045,-0.0313,-0.0525,-0.0671,-0.0774,-0.0897,-0.029,-0.0337,-0.0337,-0.0337,-0.0337,-0.0337,0.0646,0.0693,0.0769,0.0868,0.0958,0.1074,0.1159,0.1265,0.1384,0.1493,0.1465,0.1478,0.1068,0.0498,0.0151,-0.0443,-0.0488,-0.0623,-0.0764,-0.0849,-0.0943,-0.0332,-0.0412,-0.0412,-0.0412,-0.0413,-0.0413,0,0.0709,0.0763,0.0857,0.0973,0.1074,0.1113,0.1269,0.1362,0.1522,0.1659,0.1727,0.1564,0.1032,0.047,-0.0318,-0.0776,-0.097,-0.1045,-0.1183,-0.1247,-0.0709,-0.0694,-0.0813,-0.0813,-0.0813,-0.0813,-0.0813,-0.0812,0.0746,0.0838,0.088,0.1051,0.1134,0.1274,0.1367,0.1517,0.165,0.1817,0.1875,0.1882,0.1487,0.005,-0.0975,-0.1237,-0.1571,-0.1651,-0.1849,-0.1479,-0.145,-0.1423,-0.1437,-0.1711,-0.1712,-0.23,-0.2306,-0.2311]}],[{"header":{"parameterUnit":"m.s-1","parameterCategory":2,"la1":30.2991,"la2":30.254,"lo1":-89.0895,"lo2":-89.0444,"dy":0.0017,"dx":0.0017,"nx":28,"ny":28,"refTime":"2023-11-16T03:00:00:Z","depth":"2","parameterNumber":2,"parameterNumberName":"U-component_of_CURRENTS"},"data":[0,0,0,0,0,0,0,0,0,0,0,0,0,0,0,0,0,0,0,0,0,0,0,0,0,0,0,0,0,0,0,0,0,0,0,0,0,0,0,0,0,0,0,0,0,0,0,0,0,0,0,0,0,0,0,0,0,0,0.3223,0.3223,0,0.3228,0.3228,0.3228,0.3209,0.3209,0.3209,0.3208,0.3184,0.3184,0.3183,0,0,0,0,0,0,0,0,0,0,0,0,0,0.3192,0.3192,0.3223,0.3223,0.3223,0.3228,0.3228,0.3228,0.3209,0.3209,0.3209,0.3208,0.3184,0.3184,0.3183,0,0,0,0,0,0,0,0,0,0,0,0,0,0.32,0.3192,0.3223,0.3216,0.3216,0.3228,0.3228,0.3228,0.321,0.3209,0.3208,0.3208,0.3184,0.3184,0.3183,0.3192,0,0,0.3182,0.3182,0,0,0,0,0,0,0,0,0.3199,0.3201,0.3217,0.3216,0.3216,0.3219,0.3208,0.3215,0.321,0.321,0.3208,0.3208,0.3195,0.3193,0.3193,0.3191,0.319,0.3182,0.3182,0.3181,0.3181,0,0,0,0,0,0,0,0.3199,0.32,0.3223,0.3217,0.3217,0.3211,0.3212,0.3209,0.3203,0.321,0.3209,0.3213,0.3194,0.3194,0.3192,0.3189,0.3182,0.3182,0.3181,0.3181,0.3238,0.3239,0,0,0,0,0,0,0.3203,0.32,0.3223,0.3223,0.3209,0.3213,0.3213,0.3217,0.3204,0.3202,0.3213,0.3212,0.3195,0.3193,0.3192,0.3236,0.3181,0.3181,0.3181,0.3236,0.3238,0.324,0,0,0,0,0,0,0.3203,0.3205,0.3222,0.3213,0.3215,0.3214,0.3219,0.3218,0.3226,0.3207,0.3204,0.3225,0.3194,0.3192,0.3206,0.3233,0.3181,0.318,0.3234,0.3237,0.3239,0.3302,0,0,0,0,0,0,0.3202,0.3205,0.321,0.3214,0.3216,0.3242,0.3219,0.3218,0.323,0.3229,0.3216,0.3213,0.3194,0.3207,0.3205,0.3232,0.318,0.3232,0.3235,0.3238,0.3297,0.3306,0.3314,0,0,0,0,0,0.3201,0.321,0.3211,0.3214,0.3223,0.3243,0.3244,0.3239,0.3232,0.3243,0.3237,0.3213,0.3227,0.3208,0.3206,0.3232,0.323,0.3234,0.3238,0.3294,0.3304,0.3313,0,0,0,0,0,0,0.3196,0.3209,0.321,0.3222,0.3238,0.3241,0.3251,0.325,0.3255,0.3254,0.3232,0.3229,0.3255,0.3238,0.3218,0.3261,0.3227,0.323,0.327,0.328,0.3288,0.3295,0.318,0,0,0,0,0,0.32,0.3212,0.3226,0.3238,0.3248,0.3253,0.3261,0.3263,0.3267,0.3269,0.326,0.3258,0.327,0.3269,0.3274,0.3292,0.3298,0.3311,0.3319,0.3326,0.3332,0.3381,0.3394,0.3253,0.3253,0.3253,0,0,0.32,0.3211,0.3217,0.3238,0.3249,0.3266,0.3256,0.3278,0.3293,0.3266,0.3283,0.3289,0.3284,0.3309,0.3319,0.3296,0.337,0.3331,0.3336,0.3339,0.3386,0.34,0.3412,0.3256,0.3255,0.3255,0,0,0.321,0.3222,0.3236,0.3254,0.328,0.3285,0.3296,0.3311,0.3321,0.3343,0.3335,0.3358,0.3361,0.3369,0.3372,0.3429,0.3418,0.3433,0.3471,0.3518,0.353,0.3541,0.3568,0.358,0.343,0.343,0.343,0,0.321,0.323,0.3245,0.3267,0.3285,0.3296,0.332,0.3333,0.3349,0.3374,0.3357,0.3403,0.3391,0.3437,0.3453,0.3447,0.3468,0.3431,0.3529,0.354,0.3549,0.3575,0.3587,0.3433,0.3433,0.3433,0.3432,0,0.323,0.325,0.3265,0.3293,0.3317,0.3342,0.3367,0.3397,0.3409,0.3424,0.3481,0.3478,0.3507,0.351,0.3493,0.3563,0.3554,0.3539,0.3502,0.3567,0.359,0.3602,0.3438,0.3437,0.3436,0.3435,0,0,0.3211,0.3267,0.327,0.329,0.3337,0.3352,0.3405,0.3454,0.3486,0.3516,0.3566,0.3593,0.3604,0.3609,0.3604,0.3633,0.371,0.3615,0.3616,0.3639,0.3813,0.3802,0.3814,0.3719,0.3721,0.3723,0.3801,0,0.3221,0.3259,0.3293,0.333,0.3353,0.3401,0.3441,0.3491,0.353,0.3578,0.3615,0.3649,0.3637,0.3652,0.3691,0.3709,0.3746,0.3689,0.3749,0.3751,0.3731,0.3829,0.3502,0.3545,0.3813,0.3815,0.3816,0,0.3221,0.3249,0.3291,0.3351,0.3367,0.3395,0.3474,0.3514,0.3599,0.3633,0.3702,0.3723,0.379,0.3753,0.3845,0.3815,0.3824,0.3829,0.3832,0.3808,0.3764,0.3524,0.3556,0.3836,0.3835,0.3833,0.3832,0,0.3182,0.3244,0.3275,0.3295,0.3366,0.3408,0.3451,0.3535,0.358,0.3673,0.3721,0.3801,0.3848,0.3891,0.3926,0.3892,0.4016,0.3965,0.3966,0.3964,0.369,0.3661,0.403,0.403,0.403,0.403,0.4029,0,0.3168,0.319,0.3258,0.3271,0.3314,0.3381,0.3439,0.3501,0.3596,0.3655,0.3744,0.3818,0.3888,0.3969,0.3973,0.4034,0.4068,0.4,0.4,0.3704,0.3677,0.3925,0.3912,0.4032,0.4032,0.4031,0.4031,0,0.3115,0.316,0.3194,0.3269,0.3294,0.3323,0.342,0.346,0.3568,0.3658,0.3694,0.3855,0.3974,0.4037,0.4114,0.4101,0.4138,0.4141,0.3791,0.375,0.4032,0.4021,0.4145,0.4146,0.4146,0.4147,0.4147,0,0.309,0.3105,0.317,0.3187,0.3222,0.3279,0.3315,0.3426,0.3478,0.368,0.3721,0.3892,0.3985,0.4129,0.4123,0.415,0.4193,0.3865,0.3744,0.4066,0.4052,0.404,0.4029,0.3389,0.3384,0.3379,0.3375,0,0.3044,0.307,0.3095,0.3126,0.3161,0.3196,0.3267,0.3302,0.3444,0.3545,0.3695,0.3795,0.3956,0.3868,0.394,0.3905,0.3836,0.3774,0.4202,0.3438,0.3368,0.335,0.336,0.3332,0.3337,0.334,0.3342,0.3344,0.3005,0.3005,0.3036,0.3056,0.3084,0.3096,0.3093,0.3176,0.3251,0.3342,0.3543,0.358,0.3635,0.36,0.3512,0.3444,0.3703,0.3507,0.3514,0.3529,0.3455,0.3392,0.3346,0.335,0.3354,0.3357,0.336,0,0.2935,0.2948,0.2964,0.2967,0.2939,0.3,0.3037,0.2993,0.3021,0.3135,0.3221,0.3027,0.3004,0.305,0.2892,0.2926,0.282,0.2797,0.2602,0.2651,0.2692,0.2567,0.2227,0.2223,0.2219,0.2215,0,0,0.2902,0.2876,0.2876,0.2807,0.2812,0.273,0.2723,0.2685,0.2707,0.2668,0.2661,0.2871,0.2987,0.2566,0.2527,0.2339,0.246,0.225,0.317,0.299,0.3026,0.3131,0.3001,0,0,0,0,0]},{"header":{"parameterUnit":"m.s-1","parameterCategory":2,"la1":30.2991,"la2":30.254,"lo1":-89.0895,"lo2":-89.0444,"dy":0.0017,"dx":0.0017,"nx":28,"ny":28,"refTime":"2023-11-16T03:00:00:Z","depth":"2","parameterNumber":3,"parameterNumberName":"V-component_of_CURRENTS"},"data":[0,0,0,0,0,0,0,0,0,0,0,0,0,0,0,0,0,0,0,0,0,0,0,0,0,0,0,0,0,0,0,0,0,0,0,0,0,0,0,0,0,0,0,0,0,0,0,0,0,0,0,0,0,0,0,0,0,0,0.0077,0.0076,0,0.0011,0.001,0.001,-0.0036,-0.0036,-0.0036,-0.0036,-0.0121,-0.0123,-0.0125,0,0,0,0,0,0,0,0,0,0,0,0,0,0.0109,0.0109,0.0077,0.0076,0.0075,0.0011,0.001,0.0009,-0.0036,-0.0036,-0.0036,-0.0036,-0.012,-0.0122,-0.0125,0,0,0,0,0,0,0,0,0,0,0,0,0,0.0073,0.0109,0.0077,0.0046,0.0043,0.0012,0.001,0.0009,-0.0036,-0.0036,-0.0036,-0.0037,-0.0119,-0.0122,-0.0125,-0.0137,0,0,-0.0134,-0.0136,0,0,0,0,0,0,0,0,0.0076,0.0072,0.0051,0.0048,0.0044,-0.0003,-0.0009,-0.004,-0.0035,-0.0007,-0.0036,-0.0037,-0.0082,-0.0088,-0.0101,-0.014,-0.0144,-0.0135,-0.0137,-0.0138,-0.0139,0,0,0,0,0,0,0,0.0078,0.0074,0.005,0.0051,0.0046,0.0017,0.0012,-0.0016,-0.0043,-0.0009,-0.0013,-0.0018,-0.0085,-0.0098,-0.0103,-0.0145,-0.0135,-0.0137,-0.0139,-0.014,-0.0201,-0.0201,0,0,0,0,0,0,0.0092,0.0077,0.0052,0.0048,0.006,0.0017,0.0011,0.0011,-0.0042,-0.005,-0.0018,-0.002,-0.0093,-0.01,-0.0107,-0.0111,-0.0138,-0.0141,-0.0142,-0.0201,-0.0201,-0.0201,0,0,0,0,0,0,0.0093,0.009,0.0055,0.0061,0.0055,0.0017,0.0017,0.001,0.0,-0.0048,-0.0057,-0.002,-0.0093,-0.0102,-0.0124,-0.0116,-0.0142,-0.0145,-0.0202,-0.0201,-0.0201,-0.0129,0,0,0,0,0,0,0.0094,0.0091,0.0095,0.0063,0.0055,0.0046,0.0018,0.0009,-0.0003,-0.0006,-0.0053,-0.0062,-0.0094,-0.012,-0.0127,-0.012,-0.0147,-0.0202,-0.0202,-0.0201,-0.0131,-0.0126,-0.0121,0,0,0,0,0,0.0095,0.0109,0.0096,0.0093,0.0063,0.0046,0.004,0.001,-0.0002,-0.0001,-0.0033,-0.006,-0.0123,-0.0122,-0.0131,-0.0124,-0.0202,-0.0202,-0.0201,-0.0134,-0.0127,-0.0121,0,0,0,0,0,0,0.0124,0.0104,0.009,0.0096,0.0076,0.0039,0.0038,0.0018,-0.0007,-0.001,-0.0056,-0.0066,-0.0084,-0.0114,-0.0111,-0.0142,-0.0168,-0.0169,-0.0113,-0.0107,-0.0102,-0.0078,-0.015,0,0,0,0,0,0.0133,0.0138,0.0111,0.0115,0.0109,0.0074,0.0064,0.0045,0.0019,0.0007,-0.0026,-0.0062,-0.009,-0.0105,-0.0136,-0.015,-0.0183,-0.0153,-0.0148,-0.0144,-0.0131,-0.0174,-0.0172,-0.02,-0.02,-0.02,0,0,0.0144,0.0134,0.0136,0.0121,0.0102,0.0106,0.0067,0.0059,0.0063,0.0002,-0.0004,-0.0045,-0.009,-0.0107,-0.0118,-0.013,-0.0155,-0.0143,-0.0139,-0.0128,-0.0173,-0.0171,-0.0168,-0.0199,-0.0199,-0.0199,0,0,0.0173,0.0162,0.0177,0.0168,0.015,0.0131,0.0134,0.0103,0.009,0.0074,0.0033,0.0002,-0.0043,-0.0071,-0.0092,-0.0077,-0.0127,-0.0092,-0.0046,-0.0088,-0.0086,-0.0084,-0.0126,-0.0129,-0.0089,-0.0089,-0.0089,0,0.0187,0.0203,0.0177,0.0191,0.0193,0.015,0.0169,0.0151,0.0116,0.0111,0.0083,0.0018,-0.0024,-0.0038,-0.0038,-0.0064,-0.0098,-0.0063,-0.008,-0.008,-0.0079,-0.0123,-0.0127,-0.0085,-0.0086,-0.0086,-0.0086,0,0.023,0.024,0.025,0.0257,0.0255,0.0263,0.0241,0.0238,0.0212,0.0184,0.0159,0.0096,0.006,0.0035,0.0001,-0.0014,-0.0042,-0.0068,-0.0091,-0.0072,-0.0119,-0.0125,-0.008,-0.0082,-0.0083,-0.0083,0,0,0.0269,0.0279,0.0283,0.0303,0.0293,0.0303,0.0313,0.0309,0.0324,0.0269,0.0274,0.0207,0.0164,0.0138,0.0086,0.0045,0.0008,-0.0006,-0.001,-0.0038,-0.0087,-0.0101,-0.0109,-0.0023,-0.0024,-0.0024,-0.0122,0,0.031,0.0356,0.0346,0.0393,0.0418,0.0396,0.0417,0.0408,0.0378,0.0371,0.0299,0.0276,0.0206,0.0188,0.0137,0.0048,-0.0002,0.0037,-0.0108,-0.0112,-0.0121,-0.0114,-0.0072,-0.0155,-0.0127,-0.0128,-0.0129,0,0.0363,0.0386,0.044,0.0478,0.0488,0.0512,0.0543,0.0551,0.0524,0.0496,0.0449,0.0389,0.033,0.0261,0.0121,0.0149,0.004,-0.0041,-0.0047,-0.0086,-0.0136,-0.0171,-0.0166,-0.0139,-0.0138,-0.0137,-0.0136,0,0.0422,0.0458,0.0508,0.052,0.0552,0.0582,0.0598,0.0593,0.0616,0.0572,0.0572,0.0481,0.045,0.0306,0.0146,0.0128,-0.0013,-0.0062,-0.0181,-0.0184,-0.0188,-0.019,-0.0171,-0.0171,-0.017,-0.017,-0.017,0,0.048,0.052,0.0545,0.0578,0.0654,0.0649,0.0717,0.0713,0.0718,0.0761,0.0643,0.0655,0.0459,0.0359,0.0184,0.0002,0.0014,-0.0167,-0.0207,-0.0163,-0.0161,-0.0178,-0.0177,-0.0174,-0.0173,-0.0172,-0.0172,0,0.0536,0.0549,0.0615,0.0662,0.0687,0.0742,0.0807,0.0852,0.0835,0.0887,0.0882,0.0793,0.0661,0.0456,0.0235,0.0071,-0.0119,-0.0194,-0.0126,-0.0156,-0.0279,-0.0274,-0.0346,-0.0347,-0.0348,-0.0349,-0.035,0,0.0569,0.061,0.0685,0.0735,0.0761,0.0835,0.0896,0.0912,0.0965,0.0985,0.1026,0.0921,0.0875,0.054,0.0237,-0.0066,-0.0116,-0.0243,-0.0277,-0.0264,-0.0296,-0.0289,-0.0282,-0.0263,-0.0263,-0.0263,-0.0263,0,0.0635,0.0662,0.0715,0.0816,0.0892,0.0977,0.1063,0.1129,0.1166,0.1212,0.1266,0.1233,0.0933,0.0651,0.0234,0.0025,-0.0192,-0.0253,-0.0252,-0.0218,-0.0192,-0.0221,-0.0216,-0.0262,-0.0262,-0.0262,-0.0262,-0.0262,0.0688,0.0735,0.0809,0.0905,0.0993,0.1106,0.1189,0.1286,0.1396,0.1476,0.1449,0.1394,0.1083,0.0552,0.0197,-0.0193,-0.0184,-0.033,-0.0328,-0.0326,-0.0292,-0.0268,-0.0347,-0.0348,-0.0348,-0.0349,-0.0349,0,0.075,0.0802,0.0893,0.1006,0.1105,0.1144,0.1296,0.1373,0.1515,0.1585,0.1624,0.1324,0.1004,0.0618,0.0055,-0.0275,-0.0302,-0.0393,-0.0346,-0.0343,-0.0341,-0.0307,-0.0367,-0.0369,-0.037,-0.0371,0,0,0.0784,0.0874,0.0915,0.108,0.1162,0.1296,0.1386,0.1503,0.1579,0.1646,0.1621,0.1564,0.1116,0.0706,0.0268,-0.0057,-0.0134,-0.0128,-0.0073,0.0037,0.0042,-0.0261,-0.0199,0,0,0,0,0]}],[{"header":{"parameterUnit":"m.s-1","parameterCategory":2,"la1":30.2991,"la2":30.254,"lo1":-89.0895,"lo2":-89.0444,"dy":0.0017,"dx":0.0017,"nx":28,"ny":28,"refTime":"2023-11-16T03:00:00:Z","depth":"4","parameterNumber":2,"parameterNumberName":"U-component_of_CURRENTS"},"data":[0,0,0,0,0,0,0,0,0,0,0,0,0,0,0,0,0,0,0,0,0,0,0,0,0,0,0,0,0,0,0,0,0,0,0,0,0,0,0,0,0,0,0,0,0,0,0,0,0,0,0,0,0,0,0,0,0,0,0.2122,0.2123,0,0.2191,0.2192,0.2193,0.2255,0.2256,0.2257,0.2258,0.2342,0.2343,0.2345,0,0,0,0,0,0,0,0,0,0,0,0,0,0.203,0.2031,0.2122,0.2123,0.2124,0.2191,0.2192,0.2193,0.2255,0.2256,0.2257,0.2259,0.2341,0.2343,0.2345,0,0,0,0,0,0,0,0,0,0,0,0,0,0.208,0.2032,0.2122,0.2165,0.2169,0.2191,0.2192,0.2193,0.2255,0.2256,0.2258,0.2259,0.2341,0.2343,0.2345,0.233,0,0,0.2351,0.2352,0,0,0,0,0,0,0,0,0.2077,0.2083,0.2157,0.2162,0.2167,0.2218,0.219,0.224,0.2255,0.222,0.2258,0.226,0.2302,0.2307,0.2314,0.2334,0.2337,0.2351,0.2353,0.2354,0.2354,0,0,0,0,0,0,0,0.2073,0.208,0.2148,0.2158,0.2164,0.2176,0.2184,0.22,0.2251,0.2224,0.2229,0.2239,0.2305,0.2312,0.2317,0.2339,0.2351,0.2353,0.2354,0.2355,0.2487,0.2489,0,0,0,0,0,0,0.2068,0.2077,0.2145,0.215,0.2127,0.2177,0.2186,0.2199,0.2251,0.2261,0.2238,0.2242,0.2308,0.2314,0.232,0.2428,0.2354,0.2355,0.2357,0.2485,0.2487,0.249,0,0,0,0,0,0,0.2066,0.2073,0.2143,0.2116,0.2126,0.2177,0.219,0.2199,0.2254,0.2262,0.2272,0.2289,0.2309,0.2317,0.2379,0.2427,0.2356,0.2358,0.2482,0.2485,0.2489,0.2565,0,0,0,0,0,0,0.2063,0.2072,0.2101,0.2116,0.2128,0.2186,0.219,0.22,0.2256,0.2264,0.2309,0.2315,0.2311,0.2376,0.2381,0.2428,0.236,0.2479,0.2483,0.2487,0.2559,0.257,0.2579,0,0,0,0,0,0.2059,0.2083,0.2101,0.2111,0.2158,0.2188,0.2196,0.2234,0.2258,0.2288,0.2325,0.2316,0.2407,0.238,0.2385,0.2434,0.2477,0.2482,0.2487,0.2555,0.2568,0.2579,0,0,0,0,0,0,0.206,0.2093,0.2113,0.2148,0.2182,0.22,0.2238,0.226,0.2311,0.2335,0.2341,0.235,0.2424,0.2419,0.2389,0.2486,0.2442,0.2448,0.2492,0.2504,0.2514,0.2515,0.2362,0,0,0,0,0,0.2071,0.2104,0.2131,0.2167,0.2188,0.2222,0.2249,0.2276,0.2311,0.2338,0.2369,0.2406,0.244,0.2466,0.2491,0.254,0.254,0.2578,0.2588,0.2596,0.2602,0.2648,0.2663,0.2507,0.2506,0.2506,0,0,0.2082,0.2107,0.2128,0.2172,0.2204,0.2236,0.2244,0.2298,0.2337,0.2337,0.2417,0.2446,0.2462,0.2522,0.2554,0.253,0.2642,0.2603,0.261,0.2611,0.2655,0.267,0.2683,0.251,0.2509,0.2509,0,0,0.2104,0.2146,0.2176,0.2207,0.2264,0.228,0.2307,0.2354,0.2396,0.246,0.2478,0.2537,0.2587,0.2608,0.2622,0.2703,0.2696,0.2724,0.2775,0.282,0.2833,0.2844,0.2865,0.2877,0.2726,0.2727,0.2727,0,0.2121,0.2159,0.2192,0.2226,0.2262,0.2305,0.2345,0.2383,0.2449,0.2493,0.2502,0.2607,0.2623,0.2692,0.2724,0.2726,0.2747,0.2724,0.2833,0.2844,0.2854,0.2872,0.2885,0.2731,0.273,0.273,0.273,0,0.2147,0.2197,0.2222,0.2278,0.2319,0.2366,0.2414,0.2478,0.2534,0.2569,0.2673,0.2701,0.2764,0.2782,0.2778,0.2868,0.2857,0.2841,0.2798,0.2874,0.2888,0.29,0.2737,0.2735,0.2734,0.2733,0,0,0.213,0.2223,0.2236,0.2275,0.2357,0.2385,0.247,0.2547,0.2608,0.2685,0.2765,0.2835,0.287,0.2889,0.2904,0.2941,0.3028,0.2933,0.2933,0.2946,0.3128,0.2945,0.294,0.3042,0.3045,0.3047,0.3109,0,0.2147,0.2214,0.2263,0.2339,0.2376,0.2454,0.2519,0.2601,0.2675,0.2759,0.2823,0.2899,0.2903,0.2948,0.2995,0.3025,0.3065,0.3012,0.3058,0.3059,0.2881,0.2949,0.3055,0.3117,0.312,0.3122,0.3123,0,0.2145,0.2196,0.2273,0.2372,0.2399,0.2459,0.2582,0.2647,0.277,0.2832,0.2932,0.2977,0.3072,0.3049,0.3153,0.3128,0.3143,0.315,0.3152,0.296,0.2897,0.3026,0.3145,0.3143,0.3141,0.314,0.3139,0,0.2091,0.2197,0.2264,0.2298,0.2415,0.2488,0.2564,0.2686,0.2753,0.2893,0.2957,0.3065,0.3137,0.3186,0.3228,0.3208,0.3315,0.3278,0.3123,0.311,0.3222,0.3209,0.3342,0.3342,0.3342,0.3341,0.3341,0,0.206,0.2117,0.2255,0.2286,0.2376,0.2475,0.2582,0.2673,0.2804,0.2876,0.3001,0.3066,0.3181,0.3254,0.3266,0.3235,0.3355,0.314,0.3118,0.3252,0.3243,0.323,0.3216,0.3344,0.3343,0.3343,0.3342,0,0.1981,0.2072,0.2153,0.2299,0.2352,0.2421,0.2584,0.2644,0.2792,0.2894,0.2947,0.3104,0.3193,0.3273,0.3349,0.3264,0.3256,0.3214,0.3361,0.3346,0.3007,0.2997,0.3028,0.3022,0.3017,0.3013,0.301,0,0.194,0.1978,0.2144,0.2196,0.2275,0.2394,0.2464,0.2623,0.2681,0.2889,0.2914,0.3071,0.3153,0.3109,0.3215,0.3218,0.3184,0.3148,0.3061,0.3001,0.2978,0.2976,0.2973,0.3002,0.3001,0.2999,0.2998,0,0.1862,0.1945,0.2012,0.2119,0.2211,0.2287,0.2406,0.2428,0.26,0.2758,0.2801,0.2844,0.2939,0.2987,0.3018,0.3018,0.3149,0.3095,0.3104,0.3021,0.297,0.2951,0.2954,0.2981,0.2983,0.2985,0.2986,0,0.1813,0.1838,0.194,0.2015,0.2118,0.2147,0.2226,0.2287,0.2359,0.257,0.2587,0.2753,0.2907,0.2886,0.2921,0.2903,0.2849,0.2732,0.2759,0.2779,0.267,0.2566,0.244,0,0,0,0,0,0.1745,0.1757,0.1822,0.1885,0.1976,0.2035,0.2163,0.2241,0.2405,0.2362,0.2459,0.2528,0.2576,0.2672,0.2602,0.283,0.2873,0.2737,0.2756,0.2885,0.2905,0.28,0,0,0,0,0,0,0.1699,0.1757,0.1773,0.1756,0.1774,0.1849,0.1925,0.2041,0.202,0.2199,0.2237,0.2372,0.2461,0.2585,0.2553,0.258,0.2538,0.2844,0.2837,0.2874,0.2892,0.2908,0.2807,0,0,0,0,0]},{"header":{"parameterUnit":"m.s-1","parameterCategory":2,"la1":30.2991,"la2":30.254,"lo1":-89.0895,"lo2":-89.0444,"dy":0.0017,"dx":0.0017,"nx":28,"ny":28,"refTime":"2023-11-16T03:00:00:Z","depth":"4","parameterNumber":3,"parameterNumberName":"V-component_of_CURRENTS"},"data":[0,0,0,0,0,0,0,0,0,0,0,0,0,0,0,0,0,0,0,0,0,0,0,0,0,0,0,0,0,0,0,0,0,0,0,0,0,0,0,0,0,0,0,0,0,0,0,0,0,0,0,0,0,0,0,0,0,0,0.0141,0.0141,0,0.0099,0.0099,0.0098,0.0069,0.0068,0.0068,0.0068,0.0009,0.0008,0.0007,0,0,0,0,0,0,0,0,0,0,0,0,0,0.0159,0.0159,0.0141,0.0141,0.014,0.0099,0.0099,0.0098,0.0069,0.0068,0.0068,0.0068,0.001,0.0008,0.0007,0,0,0,0,0,0,0,0,0,0,0,0,0,0.0137,0.0159,0.0141,0.0121,0.0119,0.01,0.0099,0.0098,0.0069,0.0068,0.0068,0.0068,0.001,0.0008,0.0006,-0.0002,0,0,-0.0,-0.0001,0,0,0,0,0,0,0,0,0.0138,0.0136,0.0125,0.0123,0.012,0.009,0.0084,0.0064,0.0069,0.0087,0.0068,0.0068,0.0035,0.0031,0.0023,-0.0004,-0.0007,-0.0,-0.0002,-0.0002,-0.0003,0,0,0,0,0,0,0,0.014,0.0138,0.0124,0.0124,0.0121,0.0102,0.0099,0.008,0.0062,0.0085,0.0083,0.008,0.0034,0.0025,0.0021,-0.0008,-0.0,-0.0002,-0.0003,-0.0004,-0.0049,-0.0049,0,0,0,0,0,0,0.0149,0.014,0.0125,0.0123,0.013,0.0102,0.0098,0.0099,0.0063,0.0057,0.008,0.0079,0.0029,0.0024,0.0019,0.0017,-0.0002,-0.0004,-0.0006,-0.0049,-0.0049,-0.0049,0,0,0,0,0,0,0.015,0.0148,0.0127,0.013,0.0126,0.0102,0.0103,0.0098,0.0093,0.0059,0.0053,0.008,0.0028,0.0022,0.0007,0.0014,-0.0005,-0.0007,-0.0049,-0.0049,-0.0049,0.0006,0,0,0,0,0,0,0.015,0.0149,0.0154,0.0131,0.0127,0.0122,0.0103,0.0098,0.0091,0.0089,0.0057,0.0051,0.0028,0.0011,0.0005,0.0011,-0.0009,-0.0049,-0.0049,-0.0049,0.0004,0.0008,0.0012,0,0,0,0,0,0.0151,0.0162,0.0155,0.0153,0.0134,0.0123,0.0119,0.01,0.0092,0.0093,0.0071,0.0052,0.0007,0.0009,0.0003,0.0008,-0.0049,-0.0049,-0.0049,0.0003,0.0008,0.0012,0,0,0,0,0,0,0.0172,0.0159,0.0151,0.0157,0.0144,0.0118,0.0119,0.0105,0.0089,0.0088,0.0055,0.0048,0.0036,0.0014,0.0017,-0.0006,-0.0025,-0.0026,0.0016,0.0021,0.0024,0.0044,-0.0011,0,0,0,0,0,0.018,0.0185,0.0166,0.0171,0.0168,0.0144,0.0138,0.0126,0.0107,0.01,0.0077,0.0051,0.0031,0.0021,-0.0002,-0.0011,-0.0039,-0.0014,-0.001,-0.0007,0.0004,-0.0037,-0.0036,-0.0048,-0.0048,-0.0049,0,0,0.0189,0.0183,0.0186,0.0176,0.0165,0.0169,0.014,0.0136,0.014,0.0096,0.0095,0.0064,0.0031,0.0019,0.0012,0.0003,-0.0019,-0.0007,-0.0003,0.0005,-0.0037,-0.0035,-0.0034,-0.0048,-0.0048,-0.0048,0,0,0.0213,0.0207,0.0219,0.0213,0.0202,0.0189,0.0191,0.0169,0.0161,0.0152,0.0122,0.0098,0.0067,0.0046,0.003,0.004,0.0001,0.0029,0.0065,0.0026,0.0027,0.0027,-0.0008,-0.0011,0.0032,0.0032,0.0032,0,0.0225,0.0238,0.022,0.0231,0.0234,0.0203,0.0219,0.0207,0.0183,0.018,0.016,0.0113,0.0081,0.007,0.007,0.005,0.0021,0.0054,0.0031,0.0031,0.0031,-0.0006,-0.001,0.0035,0.0034,0.0034,0.0034,0,0.0257,0.0268,0.0276,0.0282,0.0283,0.029,0.0275,0.0274,0.0256,0.0236,0.0218,0.0171,0.0145,0.0125,0.0101,0.0085,0.0063,0.0041,0.0024,0.0036,-0.0004,-0.0009,0.0038,0.0038,0.0037,0.0036,0,0,0.0284,0.0296,0.03,0.0318,0.0312,0.0321,0.0331,0.0329,0.0341,0.0301,0.0306,0.0256,0.0224,0.0204,0.0164,0.0127,0.0092,0.0088,0.0084,0.006,0.0006,-0.0005,-0.0013,0.0064,0.0064,0.0063,-0.0021,0,0.0315,0.0351,0.0347,0.0387,0.0406,0.0393,0.0411,0.0406,0.0384,0.0378,0.0324,0.0309,0.0256,0.0244,0.0199,0.0124,0.0081,0.0117,-0.0007,-0.0011,-0.0017,-0.0018,0.0061,-0.0025,-0.0026,-0.0027,-0.0028,0,0.0351,0.037,0.0415,0.0451,0.046,0.0484,0.0509,0.0518,0.0496,0.0477,0.0441,0.0395,0.0346,0.0294,0.0175,0.02,0.0111,0.0043,0.0038,0.0007,-0.0032,-0.0041,-0.0038,-0.0037,-0.0036,-0.0036,-0.0035,0,0.0388,0.0423,0.0465,0.0476,0.0507,0.0536,0.0555,0.0551,0.057,0.0539,0.0539,0.0464,0.044,0.0321,0.0186,0.0177,0.0046,0.0014,-0.0082,-0.0084,-0.0073,-0.0073,-0.0079,-0.0079,-0.0078,-0.0078,-0.0078,0,0.0424,0.0459,0.0492,0.0519,0.0584,0.0588,0.0646,0.0646,0.0653,0.0681,0.0597,0.0595,0.0444,0.0352,0.0211,0.0057,0.0062,-0.0073,-0.0106,-0.0049,-0.0045,-0.0077,-0.0076,-0.0081,-0.0081,-0.008,-0.008,0,0.0454,0.0473,0.053,0.058,0.0606,0.0654,0.072,0.0753,0.0748,0.0781,0.078,0.07,0.0578,0.0414,0.0226,0.0105,-0.0053,-0.0115,-0.003,-0.0058,-0.0167,-0.0162,-0.0229,-0.023,-0.0231,-0.0232,-0.0233,0,0.047,0.0504,0.0581,0.0626,0.0655,0.0725,0.0777,0.0802,0.0836,0.0846,0.0866,0.0772,0.0695,0.0433,0.0242,-0.0024,-0.0071,-0.0158,-0.0176,-0.0156,-0.0182,-0.0175,-0.0169,-0.0234,-0.0234,-0.0235,-0.0235,0,0.0503,0.0535,0.0581,0.0672,0.0742,0.0816,0.089,0.0926,0.0958,0.096,0.0941,0.0805,0.0667,0.0449,0.0245,0.0048,-0.0103,-0.0169,-0.0169,-0.0186,-0.0163,-0.0186,-0.0179,-0.0238,-0.0238,-0.0237,-0.0237,0,0.0532,0.0568,0.0635,0.0714,0.0802,0.0881,0.0918,0.0967,0.1005,0.1013,0.101,0.0852,0.0772,0.0486,0.0297,0.0106,0.0042,-0.0036,-0.0044,-0.0043,0.0028,0.0086,0.0063,0,0,0,0,0,0.0553,0.0595,0.0669,0.0756,0.0841,0.0895,0.0983,0.101,0.1049,0.1049,0.1033,0.0902,0.0632,0.0515,0.0322,0.025,-0.0009,0.0013,-0.0107,-0.0256,-0.0252,-0.0203,0,0,0,0,0,0,0.0568,0.0636,0.0667,0.0775,0.0837,0.0936,0.0994,0.1022,0.1019,0.1033,0.0897,0.084,0.0577,0.0748,0.0316,0.0258,0.015,-0.0108,-0.0113,-0.0258,-0.0254,-0.0251,-0.02,0,0,0,0,0]}]]